Regional Weather Roundup
Issued by NWS

Home | Current Version | Previous Version | Graphics & Text | Print | Product List | Glossary On
Versions: 1 2 3 4 5 6 7 8 9 10 11 12 13 14 15 16 17 18 19 20 21 22 23 24 25 26 27 28 29 30 31 32 33 34 35 36 37 38 39 40 41 42 43 44 45 46 47 48 49 50
000
ASUS43 KOAX 300202
RWRNE

WEATHER ROUNDUP FOR NEBRASKA
NATIONAL WEATHER SERVICE OMAHA NE
900 PM CDT WED OCT 29 2014

NOTES: SATELLITE DATA IS BEING USED TO AUGMENT CLOUD COVER ABOVE
       12000 FEET.
       "FAIR" INDICATES FEW OR NO CLOUDS BELOW 12,000 FEET WITH NO
       SIGNIFICANT WEATHER AND/OR OBSTRUCTIONS TO VISIBILITY.

  * THESE STATIONS DO NOT REPORT WEATHER SUCH AS RAIN...SNOW OR FOG.

NEZ001>004-019>022-054>056-300300-
NEBRASKA PANHANDLE

CITY           SKY/WX    TMP DP  RH WIND       PRES   REMARKS
SCOTTSBLUFF    PTCLDY    49  30  48 W7        30.10R
ALLIANCE       CLEAR     48  27  44 N12       30.07R
CHADRON        PTCLDY    38  27  64 SW6       30.07R WCI  33
KIMBALL        CLEAR     47  25  41 W9        30.11R
SIDNEY         CLEAR     43  24  47 NW10      30.10R
$$

NEZ057>060-069>072-079>082-300300-
SOUTHWEST NEBRASKA

CITY           SKY/WX    TMP DP  RH WIND       PRES   REMARKS
NORTH PLATTE   MOCLDY    49  32  52 E3        29.96S
IMPERIAL       MOCLDY    62  21  20 NW13      30.02R
LEXINGTON      CLEAR     48  33  56 E5        29.97S
MCCOOK         CLEAR     57  32  38 S9        29.97S
OGALLALA       PTCLDY    59  27  29 NW12      30.03R
$$

NEZ005>010-023>029-035>040-094-300300-
NORTH CENTRAL NEBRASKA

CITY           SKY/WX    TMP DP  RH WIND       PRES   REMARKS
VALENTINE      CLOUDY    56  24  29 N6        30.01R
AINSWORTH      CLOUDY    49  27  43 NE6       29.99S
BROKEN BOW     PTCLDY    41  30  65 NE3       29.97S
O`NEILL        PTCLDY    52  33  48 SE9       30.00S
ORD            PTCLDY    45  31  58 CALM      29.98S
THEDFORD       MOCLDY    59  27  29 N12       30.00R
$$

NEZ041-046>049-061>064-073>077-083>087-300300-
SOUTH CENTRAL NEBRASKA

CITY           SKY/WX    TMP DP  RH WIND       PRES   REMARKS
GRAND ISLAND   CLEAR     48  34  58 E3        30.01S
AURORA         CLEAR     47  32  56 SE7       30.01S
HASTINGS       CLEAR     54  33  45 SE13      29.99F
HEBRON         CLEAR     49  34  56 E3        30.02S
HOLDREGE       CLEAR     47  35  61 CALM      29.97F
KEARNEY *      CLEAR     46  34  61 SE7       29.99S
YORK           PTCLDY    48  34  57 SE10      30.02F
$$

NEZ011>018-030>034-042>045-300300-
NORTHEAST NEBRASKA

CITY           SKY/WX    TMP DP  RH WIND       PRES   REMARKS
NORFOLK        PTCLDY    43  33  68 SE7       30.02F
ALBION         PTCLDY    42  31  66 SE3       30.01S
COLUMBUS *       N/A    N/A N/A N/A MISG        N/A
FREMONT        CLEAR     47  33  57 E6        30.05F
TEKAMAH        PTCLDY    41  29  62 S3        30.07F
WAYNE          PTCLDY    44  32  63 SE9       30.04F
$$

NEZ050>053-065>068-078-088>093-300300-
SOUTHEAST NEBRASKA

CITY           SKY/WX    TMP DP  RH WIND       PRES   REMARKS
LINCOLN        CLEAR     51  33  50 SE7       30.06F
OMAHA EPPLEY   CLEAR     47  32  56 SE6       30.08F
BEATRICE       CLEAR     48  33  55 SE6       30.04F
FALLS CITY     CLEAR     45  33  63 SE6       30.08F
NEBRASKA CITY  CLEAR     46  28  48 SE6       30.07F
PLATTSMOUTH    CLEAR     46  31  56 SE5       30.06F
$$

NEZ044-045-051>053-067-300300-
OMAHA AREA

CITY           SKY/WX    TMP DP  RH WIND       PRES   REMARKS
OMAHA EPPLEY   CLEAR     47  32  56 SE6       30.08F
FREMONT        CLEAR     47  33  57 E6        30.05F
MILLARD        CLEAR     47  34  60 CALM      30.07S
OFFUTT AFB     CLEAR     44  35  69 E5        30.07F
PLATTSMOUTH    CLEAR     46  31  56 SE5       30.06F
WAHOO          FAIR      43  32  64 E6        30.05F
$$



USA.gov is the U.S. government's official web portal to all federal, state and local government web resources and services.